TimeEST,TemperatureF,Dew PointF,Humidity,Sea Level PressureIn,VisibilityMPH,Wind Direction,Wind SpeedMPH,Gust SpeedMPH,PrecipitationIn,Events,Conditions,WindDirDegrees,DateUTC
12:53 AM,46.9,44.1,90,30.20,8.0,NE,3.5,-,N/A,,Clear,40,2013-03-08 05:53:00
1:53 AM,46.0,43.0,89,30.20,9.0,Calm,Calm,-,N/A,,Clear,0,2013-03-08 06:53:00
2:53 AM,46.0,44.1,93,30.19,8.0,ENE,8.1,-,N/A,,Clear,60,2013-03-08 07:53:00
3:53 AM,44.1,42.1,93,30.18,8.0,ENE,4.6,-,N/A,,Clear,60,2013-03-08 08:53:00
4:53 AM,44.1,42.1,93,30.18,7.0,NE,4.6,-,N/A,,Clear,50,2013-03-08 09:53:00
5:53 AM,45.0,42.1,90,30.19,8.0,NNE,5.8,-,N/A,,Clear,30,2013-03-08 10:53:00
6:53 AM,44.1,42.1,93,30.20,6.0,NE,4.6,-,N/A,,Clear,50,2013-03-08 11:53:00
7:53 AM,48.9,44.1,83,30.22,8.0,ENE,5.8,-,N/A,,Clear,60,2013-03-08 12:53:00
8:53 AM,55.0,44.1,67,30.24,10.0,ENE,4.6,-,N/A,,Clear,60,2013-03-08 13:53:00
9:53 AM,62.1,39.9,44,30.23,10.0,NE,8.1,-,N/A,,Clear,50,2013-03-08 14:53:00
10:53 AM,66.9,37.0,33,30.23,10.0,East,8.1,-,N/A,,Clear,80,2013-03-08 15:53:00
11:53 AM,70.0,35.1,28,30.21,10.0,NNE,6.9,-,N/A,,Clear,20,2013-03-08 16:53:00
12:53 PM,71.1,36.0,28,30.19,10.0,Variable,5.8,-,N/A,,Clear,0,2013-03-08 17:53:00
1:53 PM,73.0,36.0,26,30.15,10.0,North,9.2,-,N/A,,Clear,350,2013-03-08 18:53:00
2:53 PM,73.0,35.1,25,30.14,10.0,North,6.9,-,N/A,,Clear,350,2013-03-08 19:53:00
3:53 PM,70.0,45.0,41,30.14,10.0,WNW,11.5,-,N/A,,Clear,290,2013-03-08 20:53:00
4:53 PM,66.0,48.9,54,30.14,10.0,West,12.7,-,N/A,,Clear,280,2013-03-08 21:53:00
5:53 PM,63.0,45.0,52,30.14,10.0,WNW,11.5,-,N/A,,Clear,300,2013-03-08 22:53:00
6:53 PM,59.0,46.9,64,30.16,10.0,NW,8.1,-,N/A,,Clear,320,2013-03-08 23:53:00
7:53 PM,57.9,48.0,70,30.16,10.0,NNW,8.1,-,N/A,,Clear,340,2013-03-09 00:53:00
8:53 PM,57.0,46.9,69,30.18,10.0,NNW,4.6,-,N/A,,Clear,340,2013-03-09 01:53:00
9:23 PM,55.4,46.4,72,30.18,10.0,NNE,3.5,-,N/A,,Scattered Clouds,20,2013-03-09 02:23:00
9:53 PM,54.0,45.0,72,30.19,10.0,Calm,Calm,-,N/A,,Clear,0,2013-03-09 02:53:00
10:53 PM,52.0,46.0,80,30.20,10.0,ENE,4.6,-,N/A,,Clear,70,2013-03-09 03:53:00
11:53 PM,54.0,45.0,72,30.19,10.0,NNE,6.9,-,N/A,,Clear,30,2013-03-09 04:53:00